Weather History for Moline, IL

Change the Weather History Date:

Tuesday, July 2, 2013

  Actual Average Record
Temperature  
Mean Temperature 68 °F 75 °F  
Max Temperature 80 °F 86 °F 98 °F (1970)
Min Temperature 56 °F 65 °F 49 °F (1942)
Degree Days  
Heating Degree Days 0 0  
Month to date heating degree days 0 0  
Since 1 June heating degree days 27 19  
Since 1 July heating degree days 0 0  
Cooling Degree Days 3 10  
Month to date cooling degree days 7 20  
Year to date cooling degree days 300 310  
Since 1 June cooling degree days 210 234  
Growing Degree Days 18 (Base 50)    
Moisture  
Dew Point 53 °F    
Average Humidity 64    
Maximum Humidity 86    
Minimum Humidity 42    
Precipitation  
Precipitation 0.00 in 0.16 in 1.80 in (1892)
Month to date precipitation 0.00 0.31  
Year to date precipitation 29.29 18.66  
Snow  
Snow 0.00 in 0.00 in - ()
Month to date snowfall 0.0 0.0  
Since 1 June snowfall 0.0 0.0  
Since 1 July snowfall 0.0 0.0  
Snow Depth -    
Sea Level Pressure  
Sea Level Pressure 30.06 in    
Wind  
Wind Speed 6 mph (NE)    
Max Wind Speed 16 mph    
Max Gust Speed 21 mph    
Visibility 10 miles    
Events      
T = Trace of Precipitation, MM = Missing Value Source: NWS Daily Summary

Daily Weather History Graph

Daily Weather History Graph

Search for Another Location

Airport:

Trip Planner

Search our weather history database for the weather conditions in past years. The results will help you decide how hot, cold, wet, or windy it might be!

Date:

Astronomy

Jul. 02, 2013 Rise Set
Actual Time 5:32 AM CDT 8:39 PM CDT
Civil Twilight 4:59 AM CDT 9:13 PM CDT
Nautical Twilight 4:15 AM CDT 9:56 PM CDT
Astronomical Twilight 3:24 AM CDT 10:47 PM CDT
Moon 1:37 AM CDT (7/2) 3:51 PM CDT (7/2)
Length of Visible Light 16h 13m
Length of Day
15h 06m
Waning Crescent, 26% of the Moon is Illuminated
Jul 2
Waning Crescent
Jul 8
New
Jul 15
First Quarter
Jul 22
Full
Jul 29
Last Quarter

Hourly Weather History & Observations

Time (CDT) Temp. Dew Point Humidity Pressure Visibility Wind Dir Wind Speed Gust Speed Precip Events Conditions
12:52 AM 59.0 °F 54.0 °F 83% 30.07 in 10.0 mi Calm Calm - N/A   Clear
1:52 AM 57.9 °F 53.1 °F 84% 30.07 in 10.0 mi Calm Calm - N/A   Clear
2:52 AM 57.0 °F 53.1 °F 87% 30.06 in 10.0 mi Calm Calm - N/A   Clear
3:52 AM 59.0 °F 52.0 °F 78% 30.06 in 10.0 mi Calm Calm - N/A   Clear
4:52 AM 57.9 °F 52.0 °F 81% 30.06 in 10.0 mi Calm Calm - N/A   Clear
5:52 AM 57.0 °F 53.1 °F 87% 30.08 in 10.0 mi Calm Calm - N/A   Clear
6:52 AM 63.0 °F 54.0 °F 72% 30.09 in 10.0 mi Calm Calm - N/A   Clear
7:52 AM 66.0 °F 54.0 °F 65% 30.10 in 10.0 mi NE 4.6 mph - N/A   Clear
9:52 AM 73.0 °F 53.1 °F 49% 30.09 in 10.0 mi North 5.8 mph - N/A   Clear
10:52 AM 75.0 °F 51.1 °F 43% 30.09 in 10.0 mi NE 8.1 mph - N/A   Clear
11:52 AM 75.9 °F 52.0 °F 43% 30.08 in 10.0 mi NNE 6.9 mph - N/A   Clear
12:52 PM 78.1 °F 53.1 °F 42% 30.07 in 10.0 mi North 9.2 mph - N/A   Clear
1:52 PM 78.1 °F 53.1 °F 42% 30.06 in 10.0 mi NE 5.8 mph - N/A   Clear
2:52 PM 79.0 °F 54.0 °F 42% 30.04 in 10.0 mi ENE 16.1 mph - N/A   Clear
3:52 PM 79.0 °F 54.0 °F 42% 30.04 in 10.0 mi NE 10.4 mph 18.4 mph N/A   Partly Cloudy
4:52 PM 78.1 °F 55.0 °F 45% 30.03 in 10.0 mi East 10.4 mph - N/A   Partly Cloudy
5:52 PM 77.0 °F 55.0 °F 47% 30.03 in 10.0 mi ENE 12.7 mph - N/A   Partly Cloudy
6:52 PM 75.9 °F 54.0 °F 46% 30.02 in 10.0 mi ENE 9.2 mph - N/A   Clear
7:52 PM 73.0 °F 52.0 °F 48% 30.02 in 10.0 mi ENE 9.2 mph - N/A   Clear
8:52 PM 66.0 °F 53.1 °F 63% 30.03 in 10.0 mi East 6.9 mph - N/A   Clear
9:52 PM 64.9 °F 53.1 °F 65% 30.06 in 10.0 mi Calm Calm - N/A   Clear
10:52 PM 59.0 °F 52.0 °F 78% 30.07 in 10.0 mi East 6.9 mph - N/A   Clear
11:52 PM 59.0 °F 53.1 °F 81% 30.08 in 10.0 mi East 5.8 mph - N/A   Clear